Visibility
10.8 15.0 14.9 15.0 15.0 15.0 15.0 14.9 15.0 15.0 15.0 15.0 15.0 15.0 15.0 15.0 15.0 15.0 11.0 15.0 15.0 14.9 15.0 15.0 15.0 15.0 15.0 15.0 15.0 15.0 15.0 15.0 15.0 15.0 15.0 15.0 15.0 15.0 3.8 12.7 8.3 15.0 0.5 15.0 14.7 1.2 0.9 15.0 15.0 3.9 0.0 0.0 0.1 9.4
3.5 14.5 15.0 14.7 15.0 15.0 15.0 14.3 15.0 15.0 15.0 15.0 15.0 15.0 15.0 15.0 15.0 15.0 10.9 15.0 15.0 15.0 13.8 15.0 15.0 15.0 15.0 15.0 15.0 15.0 14.6 15.0 15.0 13.7 15.0 15.0 14.8 15.0 15.0 0.1 15.0 2.0 9.2 14.0 11.6 0.1 6.2 15.0 4.5 9.1 14.1 7.7 10.4 15.0
15.0 14.6 10.4 15.0 15.0 15.0 15.0 15.0 15.0 15.0 14.9 15.0 15.0 15.0 15.0 15.0 15.0 15.0 14.4 15.0 15.0 0.2 3.6 15.0 7.1 15.0 15.0 15.0 15.0 15.0 9.2 15.0 15.0 15.0 14.6 8.2 4.7 15.0 10.5 2.3 2.3 7.8 15.0 15.0 1.0 1.5 13.6 7.6 11.0 14.9 15.0 15.0 15.0 15.0
15.0 11.3 14.6 15.0 15.0 15.0 15.0 15.0 15.0 15.0 14.9 12.4 15.0 15.0 15.0 15.0 15.0 15.0 15.0 15.0 5.2 0.1 12.0 8.6 15.0 15.0 15.0 15.0 15.0 15.0 15.0 15.0 15.0 15.0 15.0 14.3 9.2 15.0 15.0 10.0 15.0 15.0 15.0 15.0 3.7 7.4 13.2 15.0 15.0 15.0 15.0 15.0 15.0 15.0
15.0 15.0 8.2 15.0 15.0 15.0 15.0 15.0 15.0 15.0 15.0 14.9 15.0 15.0 15.0 15.0 15.0 15.0 15.0 15.0 15.0 0.8 0.0 9.7 14.6 15.0 15.0 15.0 15.0 15.0 15.0 15.0 15.0 15.0 14.4 4.8 11.2 15.0 15.0 12.5 15.0 15.0 15.0 6.5 4.8 0.1 12.8 11.6 14.9 15.0 15.0 15.0 15.0 15.0
15.0 15.0 15.0 15.0 15.0 15.0 15.0 14.4 15.0 15.0 15.0 15.0 15.0 15.0 15.0 15.0 15.0 14.3 0.5 6.5 15.0 14.7 0.0 0.8 8.2 15.0 15.0 15.0 15.0 15.0 15.0 15.0 15.0 15.0 15.0 15.0 7.2 15.0 15.0 1.1 14.5 15.0 15.0 15.0 10.3 15.0 15.0 15.0 15.0 15.0 15.0 15.0 15.0 15.0
14.2 15.0 15.0 15.0 15.0 15.0 15.0 15.0 15.0 15.0 15.0 11.5 15.0 15.0 15.0 15.0 15.0 1.1 1.0 13.4 15.0 15.0 0.0 12.0 3.8 15.0 15.0 15.0 15.0 15.0 15.0 15.0 15.0 15.0 15.0 15.0 11.0 13.5 15.0 13.1 15.0 15.0 15.0 15.0 15.0 15.0 12.2 15.0 15.0 15.0 15.0 15.0 15.0 15.0
15.0 15.0 15.0 15.0 15.0 15.0 15.0 15.0 15.0 13.4 15.0 15.0 15.0 15.0 15.0 13.8 9.8 6.6 15.0 11.4 15.0 3.0 0.1 8.3 6.7 15.0 15.0 15.0 15.0 15.0 15.0 14.2 15.0 15.0 14.8 15.0 15.0 15.0 12.9 15.0 15.0 15.0 15.0 15.0 15.0 15.0 15.0 15.0 15.0 15.0 15.0 15.0 15.0 15.0
11.0 13.4 15.0 15.0 15.0 15.0 14.9 15.0 15.0 14.5 15.0 15.0 15.0 15.0 11.3 2.3 0.2 1.0 15.0 14.2 15.0 1.4 2.9 14.5 11.0 1.1 15.0 14.2 14.0 15.0 15.0 10.3 15.0 15.0 15.0 15.0 14.3 10.6 8.7 15.0 15.0 15.0 15.0 15.0 15.0 15.0 15.0 15.0 15.0 15.0 15.0 15.0 15.0 15.0
8.5 14.0 15.0 15.0 14.9 15.0 15.0 15.0 15.0 14.9 15.0 15.0 13.3 0.0 0.0 0.0 12.2 13.4 0.3 0.1 0.1 0.1 2.9 7.0 15.0 2.2 15.0 15.0 11.9 15.0 6.0 15.0 2.1 15.0 15.0 15.0 15.0 4.6 15.0 15.0 15.0 15.0 15.0 15.0 15.0 15.0 15.0 15.0 15.0 15.0 15.0 15.0 15.0 15.0
15.0 15.0 15.0 15.0 12.9 15.0 14.8 15.0 15.0 13.2 9.7 13.4 0.0 0.0 13.3 11.8 6.3 0.0 0.0 0.0 0.0 0.0 15.0 15.0 15.0 13.6 15.0 15.0 14.2 7.9 10.0 15.0 10.6 8.5 9.8 13.6 11.5 15.0 15.0 15.0 15.0 15.0 15.0 15.0 15.0 15.0 15.0 15.0 15.0 15.0 15.0 15.0 15.0 15.0
15.0 15.0 15.0 14.2 14.6 15.0 15.0 15.0 15.0 15.0 15.0 13.6 9.2 8.0 2.7 0.1 0.0 0.0 0.0 1.0 14.3 15.0 15.0 15.0 15.0 13.8 9.2 13.7 8.6 10.4 14.6 15.0 12.7 10.5 11.4 9.7 2.6 15.0 15.0 15.0 15.0 15.0 15.0 15.0 15.0 15.0 15.0 15.0 15.0 15.0 15.0 15.0 15.0 15.0
15.0 15.0 15.0 14.8 14.4 15.0 15.0 15.0 15.0 15.0 15.0 11.9 0.1 0.0 0.0 0.0 0.0 3.8 0.7 6.1 15.0 15.0 15.0 15.0 0.1 7.3 15.0 15.0 13.4 13.1 15.0 12.5 13.8 11.8 5.3 3.4 14.9 15.0 15.0 15.0 15.0 15.0 15.0 15.0 15.0 15.0 15.0 15.0 15.0 15.0 15.0 15.0 15.0 15.0
15.0 15.0 15.0 14.7 12.5 13.3 15.0 15.0 15.0 11.2 0.0 0.0 0.0 0.0 0.0 0.9 14.4 15.0 15.0 15.0 15.0 15.0 15.0 15.0 15.0 15.0 8.1 12.7 0.1 14.8 12.2 6.6 5.3 6.8 2.5 15.0 15.0 15.0 15.0 15.0 15.0 15.0 15.0 15.0 15.0 15.0 15.0 14.8 12.6 15.0 15.0 15.0 15.0 15.0
15.0 15.0 14.6 13.9 12.5 11.8 15.0 12.5 15.0 4.1 0.0 0.0 0.1 0.1 4.5 11.9 7.7 0.0 0.0 8.4 15.0 15.0 15.0 15.0 15.0 15.0 15.0 15.0 15.0 15.0 4.9 7.1 13.1 8.9 2.2 15.0 15.0 15.0 15.0 15.0 15.0 15.0 15.0 15.0 15.0 15.0 15.0 15.0 15.0 12.9 15.0 15.0 15.0 15.0
15.0 15.0 14.9 13.0 11.7 11.3 14.0 11.0 0.0 0.1 5.6 0.1 12.9 2.8 0.0 2.8 0.0 0.0 0.0 0.0 9.6 15.0 15.0 13.3 9.7 9.1 15.0 12.3 7.7 14.9 7.4 11.8 1.2 2.7 5.0 15.0 15.0 15.0 15.0 15.0 15.0 15.0 15.0 15.0 15.0 15.0 15.0 15.0 15.0 15.0 14.2 15.0 15.0 15.0
13.3 15.0 15.0 13.1 14.9 10.0 14.4 0.0 0.0 0.0 13.8 14.3 4.1 14.4 1.0 0.1 0.8 0.0 0.0 0.3 6.2 15.0 0.0 12.3 14.3 15.0 15.0 13.9 15.0 15.0 2.2 0.7 6.7 7.0 15.0 15.0 14.8 12.4 15.0 15.0 15.0 15.0 15.0 14.8 15.0 15.0 15.0 15.0 15.0 15.0 2.5 14.4 12.6 13.3
15.0 9.2 15.0 15.0 7.2 8.5 0.0 0.0 9.2 15.0 10.5 15.0 8.5 10.4 11.1 0.0 0.0 0.0 2.5 15.0 15.0 14.2 11.7 14.4 5.9 15.0 15.0 15.0 14.7 12.8 7.7 6.6 15.0 14.3 11.1 14.4 15.0 15.0 15.0 15.0 15.0 15.0 15.0 11.9 13.8 10.9 15.0 15.0 13.5 12.6 15.0 15.0 15.0 15.0
8.5 10.9 12.5 10.9 6.8 0.2 0.7 0.0 0.1 0.2 8.1 15.0 13.4 15.0 14.0 7.0 7.0 15.0 7.2 6.2 15.0 15.0 15.0 15.0 6.8 15.0 14.2 15.0 8.5 12.0 11.1 15.0 1.1 1.0 3.4 10.0 15.0 15.0 15.0 15.0 15.0 15.0 15.0 15.0 15.0 15.0 15.0 15.0 7.2 15.0 15.0 15.0 15.0 15.0
14.9 13.1 14.5 15.0 15.0 0.0 6.4 12.6 15.0 13.1 6.5 15.0 10.5 5.8 6.4 6.7 15.0 0.0 1.6 15.0 15.0 15.0 6.4 15.0 4.8 1.1 8.9 15.0 15.0 15.0 15.0 15.0 15.0 5.7 1.3 3.7 14.6 15.0 15.0 15.0 15.0 15.0 15.0 14.2 14.3 15.0 15.0 15.0 15.0 15.0 15.0 15.0 15.0 15.0
6.4 4.3 10.7 8.6 0.0 0.0 0.2 8.2 11.1 15.0 15.0 1.1 14.7 15.0 14.4 10.3 0.9 1.2 9.3 15.0 0.3 15.0 15.0 15.0 15.0 15.0 15.0 15.0 15.0 15.0 15.0 15.0 15.0 15.0 14.8 6.3 14.7 15.0 15.0 15.0 15.0 15.0 15.0 15.0 15.0 15.0 15.0 15.0 15.0 15.0 15.0 15.0 14.9 15.0
0.1 14.0 0.0 0.1 0.0 0.5 0.3 9.0 15.0 13.5 7.7 15.0 6.2 11.0 10.8 1.5 1.4 0.9 15.0 0.1 0.0 0.3 15.0 15.0 15.0 15.0 15.0 15.0 15.0 15.0 15.0 15.0 15.0 15.0 15.0 15.0 15.0 15.0 15.0 15.0 15.0 15.0 15.0 15.0 15.0 15.0 15.0 15.0 15.0 15.0 15.0 3.3 15.0 15.0
13.8 14.6 0.1 0.1 0.7 0.4 0.1 15.0 11.9 15.0 2.7 0.8 6.2 10.7 7.3 6.9 11.9 15.0 0.4 0.6 3.0 15.0 15.0 15.0 15.0 15.0 15.0 15.0 15.0 15.0 15.0 15.0 15.0 15.0 15.0 15.0 15.0 15.0 15.0 15.0 15.0 15.0 15.0 15.0 15.0 15.0 15.0 15.0 15.0 15.0 15.0 15.0 15.0 14.1
15.0 0.1 0.0 0.1 5.1 0.9 12.3 3.0 15.0 15.0 14.7 0.4 0.9 12.7 4.2 13.5 15.0 15.0 0.5 13.0 10.5 15.0 15.0 15.0 15.0 15.0 15.0 15.0 15.0 15.0 15.0 15.0 15.0 15.0 15.0 15.0 15.0 15.0 15.0 15.0 15.0 15.0 15.0 15.0 15.0 15.0 15.0 15.0 15.0 15.0 15.0 15.0 15.0 15.0
0.2 1.3 15.0 15.0 15.0 15.0 14.5 15.0 15.0 14.9 5.5 11.0 13.9 15.0 15.0 15.0 6.9 3.3 5.1 2.6 15.0 15.0 15.0 15.0 15.0 15.0 15.0 15.0 15.0 15.0 15.0 15.0 15.0 15.0 15.0 15.0 15.0 15.0 15.0 15.0 15.0 15.0 15.0 15.0 15.0 15.0 15.0 15.0 15.0 15.0 15.0 15.0 15.0 15.0
0.2 0.4 2.0 12.4 8.3 13.5 12.3 15.0 15.0 15.0 15.0 15.0 14.9 15.0 15.0 15.0 4.0 1.4 1.6 3.0 15.0 15.0 15.0 15.0 15.0 15.0 15.0 15.0 15.0 15.0 15.0 15.0 15.0 15.0 15.0 15.0 15.0 15.0 15.0 15.0 15.0 15.0 15.0 15.0 15.0 15.0 15.0 15.0 15.0 15.0 15.0 15.0 13.1 15.0
0.3 0.5 14.6 15.0 15.0 15.0 13.9 15.0 15.0 15.0 15.0 15.0 14.5 15.0 13.9 6.2 3.6 0.8 14.5 0.3 1.5 14.7 15.0 15.0 15.0 15.0 15.0 15.0 15.0 15.0 15.0 15.0 15.0 15.0 15.0 15.0 15.0 15.0 15.0 15.0 8.4 4.1 15.0 15.0 15.0 15.0 15.0 15.0 15.0 15.0 15.0 15.0 14.2 13.8
6.0 0.8 0.8 6.3 15.0 14.8 1.7 15.0 15.0 15.0 15.0 15.0 14.6 12.6 8.4 0.5 0.3 0.7 4.6 11.2 0.3 7.9 2.8 15.0 15.0 15.0 15.0 15.0 15.0 15.0 15.0 15.0 15.0 15.0 15.0 15.0 15.0 15.0 15.0 13.7 15.0 15.0 15.0 15.0 15.0 15.0 15.0 15.0 15.0 15.0 15.0 15.0 15.0 13.6
4.9 15.0 15.0 5.5 15.0 15.0 15.0 5.3 13.5 15.0 15.0 2.3 0.5 13.1 5.1 10.4 1.0 0.8 1.1 0.2 1.3 14.4 2.6 2.1 0.2 15.0 15.0 15.0 15.0 14.1 15.0 15.0 15.0 15.0 15.0 15.0 15.0 10.8 15.0 15.0 15.0 15.0 15.0 15.0 15.0 15.0 15.0 15.0 15.0 15.0 15.0 15.0 15.0 15.0
13.2 15.0 15.0 15.0 15.0 3.8 0.9 1.8 1.7 9.6 15.0 15.0 15.0 15.0 10.7 5.7 1.0 1.7 6.4 7.3 4.0 0.9 2.7 12.8 7.3 14.5 3.9 1.4 0.4 0.3 6.6 15.0 15.0 15.0 15.0 15.0 9.5 11.6 15.0 15.0 15.0 15.0 15.0 15.0 15.0 10.9 15.0 15.0 15.0 9.4 4.0 15.0 15.0 12.1
15.0 14.2 15.0 15.0 2.3 0.8 3.0 13.0 14.1 11.3 10.7 1.5 7.4 15.0 10.3 1.6 3.8 15.0 9.2 0.1 0.1 8.6 5.5 0.8 0.3 0.5 0.5 1.5 7.7 7.7 1.8 12.6 15.0 15.0 15.0 14.7 15.0 15.0 15.0 15.0 15.0 15.0 15.0 15.0 15.0 15.0 15.0 15.0 15.0 15.0 15.0 15.0 15.0 15.0
14.9 15.0 15.0 7.2 0.9 3.0 1.4 0.2 0.4 1.2 0.6 2.8 3.8 12.8 1.2 0.5 1.1 0.8 0.5 0.7 0.1 0.1 0.1 0.5 0.3 0.1 0.2 0.5 1.6 14.7 15.0 15.0 15.0 15.0 15.0 15.0 14.9 15.0 15.0 15.0 15.0 15.0 15.0 15.0 15.0 15.0 15.0 15.0 15.0 15.0 15.0 15.0 15.0 15.0
15.0 15.0 15.0 13.6 1.4 0.8 4.5 1.4 10.3 2.1 2.4 1.5 1.4 4.8 2.6 0.9 0.5 0.4 0.5 0.3 0.1 0.2 0.2 0.4 1.6 1.7 3.2 12.4 3.8 1.5 1.3 1.0 2.5 8.9 15.0 15.0 15.0 15.0 15.0 15.0 15.0 15.0 15.0 15.0 15.0 15.0 15.0 15.0 15.0 15.0 15.0 15.0 15.0 15.0